Location: Indian Hills
(32.9760°N, 85.9450°W)
Time: 18:55:20
(UTC+00:00)

ISS - Pass Details

Date: 08 March 2021
Orbit: 418 x 422 km, 51.6° (Epoch: 17 April)

Event Time Altitude Azimuth Distance (km) Brightness Sun altitude
Exits shadow 10:54:54 - 337° (NNW) 2,148 -0.3 -15.1°
Reaches altitude 10° 10:57:48 10° 12° (NNE) 1,496 -0.8 -14.4°
Maximum altitude 10:58:42 11° 28° (NNE) 1,446 -0.6 -14.3°
Drops below altitude 10° 10:59:37 10° 44° (NE) 1,495 -0.3 -14.1°
Sets 11:03:10 0° 84° (E) 2,356 2.1 -13.3°
